| time (UTC) | temp F | wind direction | speed MPH | gust MPH | rain 1hr in | rain 24hr in | rain mn in | humidity % | barometer mb |
| 20260904213626 | 87 | 107 | 3.0 | 8.0 | 0.00 | 0.00 | 0.00 | 36 | 1018.4 |
| 20260904213126 | 86 | 124 | 3.0 | 8.0 | 0.00 | 0.00 | 0.00 | 36 | 1018.5 |
| 20260904212626 | 86 | 123 | 3.0 | 6.0 | 0.00 | 0.00 | 0.00 | 37 | 1018.4 |
| 20260904211621 | 87 | 134 | 4.0 | 12.0 | 0.00 | 0.00 | 0.00 | 36 | 1018.6 |
| 20260904211120 | 87 | 136 | 3.0 | 8.0 | 0.00 | 0.00 | 0.00 | 36 | 1018.8 |
| 20260904210623 | 87 | 138 | 3.0 | 7.0 | 0.00 | 0.00 | 0.00 | 34 | 1018.9 |
| 20260904210118 | 87 | 92 | 4.0 | 10.0 | 0.00 | 0.00 | 0.00 | 35 | 1018.9 |
| 20260904205614 | 87 | 143 | 4.0 | 10.0 | 0.00 | 0.00 | 0.00 | 35 | 1019.0 |
| 20260904205114 | 87 | 144 | 2.0 | 9.0 | 0.00 | 0.00 | 0.00 | 36 | 1018.9 |
| 20260904204614 | 87 | 184 | 2.0 | 10.0 | 0.00 | 0.00 | 0.00 | 36 | 1019.0 |
| 20260904204112 | 86 | 186 | 4.0 | 10.0 | 0.00 | 0.00 | 0.00 | 35 | 1019.0 |
| 20260904203611 | 87 | 117 | 4.0 | 17.0 | 0.00 | 0.00 | 0.00 | 35 | 1019.1 |
| 20260904202606 | 86 | 152 | 5.0 | 13.0 | 0.00 | 0.00 | 0.00 | 36 | 1019.1 |
| 20260904202107 | 86 | 115 | 5.0 | 13.0 | 0.00 | 0.00 | 0.00 | 36 | 1019.1 |
| 20260904201607 | 86 | 134 | 4.0 | 11.0 | 0.00 | 0.00 | 0.00 | 34 | 1019.1 |
| 20260904201106 | 87 | 116 | 4.0 | 11.0 | 0.00 | 0.00 | 0.00 | 36 | 1019.3 |
| 20260904200606 | 86 | 161 | 4.0 | 10.0 | 0.00 | 0.00 | 0.00 | 36 | 1019.2 |
| 20260904200108 | 86 | 165 | 4.0 | 8.0 | 0.00 | 0.00 | 0.00 | 38 | 1019.3 |
| 20260904195604 | 86 | 132 | 4.0 | 9.0 | 0.00 | 0.00 | 0.00 | 39 | 1019.3 |
| 20260904195104 | 85 | 136 | 4.0 | 9.0 | 0.00 | 0.00 | 0.00 | 38 | 1019.3 |
| 20260904194602 | 85 | 155 | 5.0 | 16.0 | 0.00 | 0.00 | 0.00 | 37 | 1019.6 |
| 20260904194102 | 85 | 137 | 6.0 | 16.0 | 0.00 | 0.00 | 0.00 | 36 | 1019.6 |
| 20260904193602 | 85 | 148 | 5.0 | 10.0 | 0.00 | 0.00 | 0.00 | 40 | 1019.7 |
| 20260904192557 | 84 | 150 | 4.0 | 9.0 | 0.00 | 0.00 | 0.00 | 42 | 1019.8 |
| 20260904192056 | 84 | 107 | 4.0 | 8.0 | 0.00 | 0.00 | 0.00 | 39 | 1019.9 |
| 20260904191557 | 84 | 118 | 3.0 | 8.0 | 0.00 | 0.00 | 0.00 | 41 | 1020.0 |
| 20260904191054 | 84 | 125 | 3.0 | 10.0 | 0.00 | 0.00 | 0.00 | 43 | 1019.9 |
| 20260904190555 | 84 | 161 | 3.0 | 10.0 | 0.00 | 0.00 | 0.00 | 43 | 1019.9 |
| 20260904185554 | 83 | 175 | 4.0 | 7.0 | 0.00 | 0.00 | 0.00 | 44 | 1020.1 |
| 20260904185054 | 83 | 139 | 4.0 | 10.0 | 0.00 | 0.00 | 0.00 | 45 | 1020.1 |
| 20260904184554 | 83 | 153 | 5.0 | 10.0 | 0.00 | 0.00 | 0.00 | 44 | 1020.2 |
| 20260904184054 | 83 | 138 | 4.0 | 12.0 | 0.00 | 0.00 | 0.00 | 43 | 1020.2 |
| 20260904183052 | 83 | 120 | 4.0 | 9.0 | 0.00 | 0.00 | 0.00 | 46 | 1020.4 |
| 20260904182552 | 83 | 135 | 4.0 | 10.0 | 0.00 | 0.00 | 0.00 | 47 | 1020.5 |
| 20260904181552 | 82 | 138 | 4.0 | 8.0 | 0.00 | 0.00 | 0.00 | 47 | 1020.6 |
| 20260904181052 | 83 | 121 | 4.0 | 10.0 | 0.00 | 0.00 | 0.00 | 46 | 1020.6 |
| 20260904180550 | 83 | 130 | 4.0 | 10.0 | 0.00 | 0.00 | 0.00 | 47 | 1020.6 |
| 20260904175551 | 83 | 97 | 3.0 | 12.0 | 0.00 | 0.00 | 0.00 | 45 | 1020.6 |
| 20260904175050 | 83 | 145 | 3.0 | 12.0 | 0.00 | 0.00 | 0.00 | 47 | 1020.6 |
| 20260904174549 | 82 | 151 | 2.0 | 12.0 | 0.00 | 0.00 | 0.00 | 46 | 1020.6 |
| 20260904174047 | 82 | 173 | 4.0 | 10.0 | 0.00 | 0.00 | 0.00 | 49 | 1020.8 |
| 20260904173042 | 82 | 153 | 4.0 | 10.0 | 0.00 | 0.00 | 0.00 | 48 | 1020.7 |
| 20260904172542 | 81 | 147 | 3.0 | 11.0 | 0.00 | 0.00 | 0.00 | 51 | 1020.7 |
| 20260904172042 | 80 | 144 | 3.0 | 11.0 | 0.00 | 0.00 | 0.00 | 52 | 1020.9 |
| 20260904171542 | 80 | 148 | 2.0 | 7.0 | 0.00 | 0.00 | 0.00 | 53 | 1020.8 |
| 20260904171042 | 79 | 141 | 2.0 | 7.0 | 0.00 | 0.00 | 0.00 | 52 | 1020.9 |
| 20260904170542 | 78 | 193 | 1.0 | 6.0 | 0.00 | 0.00 | 0.00 | 54 | 1020.9 |
| 20260904170040 | 78 | 154 | 2.0 | 6.0 | 0.00 | 0.00 | 0.00 | 54 | 1020.9 |
| 20260904165540 | 79 | 141 | 3.0 | 7.0 | 0.00 | 0.00 | 0.00 | 53 | 1020.9 |
| 20260904165040 | 80 | 168 | 2.0 | 7.0 | 0.00 | 0.00 | 0.00 | 53 | 1020.9 |
| 20260904164540 | 79 | 125 | 1.0 | 4.0 | 0.00 | 0.00 | 0.00 | 54 | 1020.8 |
| 20260904163538 | 78 | 132 | 2.0 | 7.0 | 0.00 | 0.00 | 0.00 | 56 | 1020.8 |
| 20260904163036 | 78 | 134 | 3.0 | 9.0 | 0.00 | 0.00 | 0.00 | 54 | 1020.8 |
| 20260904162538 | 79 | 188 | 3.0 | 9.0 | 0.00 | 0.00 | 0.00 | 54 | 1020.7 |
| 20260904162036 | 79 | 126 | 2.0 | 6.0 | 0.00 | 0.00 | 0.00 | 55 | 1020.6 |
| 20260904161536 | 79 | 135 | 3.0 | 6.0 | 0.00 | 0.00 | 0.00 | 54 | 1020.7 |
| 20260904161036 | 79 | 113 | 3.0 | 7.0 | 0.00 | 0.00 | 0.00 | 55 | 1020.7 |
| 20260904160036 | 79 | 134 | 4.0 | 9.0 | 0.00 | 0.00 | 0.00 | 54 | 1020.7 |
| 20260904155537 | 78 | 110 | 3.0 | 9.0 | 0.00 | 0.00 | 0.00 | 56 | 1020.7 |
| 20260904155036 | 78 | 126 | 4.0 | 8.0 | 0.00 | 0.00 | 0.00 | 55 | 1020.7 |
| 20260904154036 | 78 | 109 | 4.0 | 8.0 | 0.00 | 0.00 | 0.00 | 57 | 1020.6 |
| 20260904153536 | 78 | 115 | 3.0 | 7.0 | 0.00 | 0.00 | 0.00 | 57 | 1020.6 |
| 20260904153036 | 78 | 121 | 3.0 | 7.0 | 0.00 | 0.00 | 0.00 | 57 | 1020.6 |
| 20260904152035 | 77 | 149 | 2.0 | 7.0 | 0.00 | 0.00 | 0.00 | 58 | 1020.5 |
| 20260904151534 | 77 | 118 | 2.0 | 4.0 | 0.00 | 0.00 | 0.00 | 59 | 1020.5 |
| 20260904150534 | 76 | 116 | 2.0 | 4.0 | 0.00 | 0.00 | 0.00 | 60 | 1020.5 |
| 20260904150035 | 76 | 146 | 2.0 | 6.0 | 0.00 | 0.00 | 0.00 | 58 | 1020.5 |
| 20260904145532 | 76 | 119 | 1.0 | 6.0 | 0.00 | 0.00 | 0.00 | 59 | 1020.5 |
| 20260904144530 | 75 | 123 | 1.0 | 2.0 | 0.00 | 0.00 | 0.00 | 60 | 1020.5 |
| 20260904144028 | 75 | 131 | 0.0 | 2.0 | 0.00 | 0.00 | 0.00 | 62 | 1020.5 |
| 20260904143530 | 74 | 186 | 0.0 | 2.0 | 0.00 | 0.00 | 0.00 | 62 | 1020.4 |
| 20260904143025 | 73 | 186 | 0.0 | 2.0 | 0.00 | 0.00 | 0.00 | 62 | 1020.4 |
| 20260904142520 | 73 | 186 | 0.0 | 2.0 | 0.00 | 0.00 | 0.00 | 63 | 1020.2 |
| 20260904142020 | 72 | 186 | 0.0 | 0.0 | 0.00 | 0.00 | 0.00 | 65 | 1020.2 |
| 20260904141518 | 70 | 186 | 0.0 | 0.0 | 0.00 | 0.00 | 0.00 | 67 | 1020.2 |
| 20260904141016 | 70 | 186 | 0.0 | 0.0 | 0.00 | 0.00 | 0.00 | 68 | 1020.1 |
| 20260904140516 | 69 | 186 | 0.0 | 0.0 | 0.00 | 0.00 | 0.00 | 68 | 1020.1 |
| 20260904140014 | 69 | 186 | 0.0 | 0.0 | 0.00 | 0.00 | 0.00 | 68 | 1020.0 |
| 20260904135511 | 69 | 186 | 0.0 | 0.0 | 0.00 | 0.00 | 0.00 | 69 | 1019.9 |
| 20260904135012 | 69 | 186 | 0.0 | 0.0 | 0.00 | 0.00 | 0.00 | 67 | 1019.8 |
| 20260904134510 | 68 | 186 | 0.0 | 0.0 | 0.00 | 0.00 | 0.00 | 67 | 1019.8 |
| 20260904133504 | 68 | 186 | 0.0 | 0.0 | 0.00 | 0.00 | 0.00 | 68 | 1019.7 |
| 20260904133002 | 67 | 186 | 0.0 | 0.0 | 0.00 | 0.00 | 0.00 | 69 | 1019.7 |
| 20260904132000 | 67 | 186 | 0.0 | 0.0 | 0.00 | 0.00 | 0.00 | 70 | 1019.6 |
| 20260904131458 | 67 | 186 | 0.0 | 0.0 | 0.00 | 0.00 | 0.00 | 69 | 1019.4 |
| 20260904130957 | 67 | 186 | 0.0 | 0.0 | 0.00 | 0.00 | 0.00 | 69 | 1019.3 |
| 20260904130456 | 67 | 186 | 0.0 | 0.0 | 0.00 | 0.00 | 0.00 | 70 | 1019.2 |
| 20260904125956 | 67 | 186 | 0.0 | 1.0 | 0.00 | 0.00 | 0.00 | 70 | 1019.2 |
| 20260904125456 | 67 | 186 | 0.0 | 1.0 | 0.00 | 0.00 | 0.00 | 71 | 1019.2 |
| 20260904124959 | 67 | 186 | 0.0 | 1.0 | 0.00 | 0.00 | 0.00 | 71 | 1019.1 |
| 20260904123954 | 67 | 186 | 1.0 | 2.0 | 0.00 | 0.00 | 0.00 | 71 | 1019.1 |
| 20260904123452 | 67 | 186 | 1.0 | 3.0 | 0.00 | 0.00 | 0.00 | 71 | 1019.0 |
| 20260904122952 | 67 | 186 | 1.0 | 3.0 | 0.00 | 0.00 | 0.00 | 71 | 1019.0 |
| 20260904122450 | 68 | 186 | 1.0 | 3.0 | 0.00 | 0.00 | 0.00 | 72 | 1018.9 |
| 20260904121949 | 68 | 186 | 1.0 | 3.0 | 0.00 | 0.00 | 0.00 | 71 | 1018.9 |
| 20260904121448 | 68 | 186 | 1.0 | 2.0 | 0.00 | 0.00 | 0.00 | 71 | 1018.8 |
| 20260904120948 | 68 | 186 | 1.0 | 3.0 | 0.00 | 0.00 | 0.00 | 72 | 1018.8 |
| 20260904120448 | 68 | 186 | 0.0 | 3.0 | 0.00 | 0.00 | 0.00 | 72 | 1018.8 |
| 20260904115948 | 68 | 186 | 0.0 | 2.0 | 0.00 | 0.00 | 0.00 | 72 | 1018.8 |
| 20260904115446 | 68 | 186 | 0.0 | 0.0 | 0.00 | 0.00 | 0.00 | 72 | 1018.6 |
| 20260904114944 | 68 | 186 | 0.0 | 0.0 | 0.00 | 0.00 | 0.00 | 72 | 1018.8 |
| 20260904114444 | 68 | 186 | 0.0 | 0.0 | 0.00 | 0.00 | 0.00 | 71 | 1018.8 |
| 20260904113944 | 69 | 186 | 0.0 | 0.0 | 0.00 | 0.00 | 0.00 | 71 | 1018.8 |
| 20260904113443 | 69 | 186 | 0.0 | 0.0 | 0.00 | 0.00 | 0.00 | 71 | 1018.8 |
| 20260904112943 | 69 | 186 | 0.0 | 0.0 | 0.00 | 0.00 | 0.00 | 70 | 1018.8 |
| 20260904112444 | 69 | 186 | 0.0 | 1.0 | 0.00 | 0.00 | 0.00 | 70 | 1018.8 |
| 20260904111944 | 70 | 186 | 0.0 | 1.0 | 0.00 | 0.00 | 0.00 | 69 | 1018.8 |
| 20260904110942 | 70 | 186 | 0.0 | 3.0 | 0.00 | 0.00 | 0.00 | 68 | 1018.6 |
| 20260904110440 | 71 | 186 | 0.0 | 3.0 | 0.00 | 0.00 | 0.00 | 68 | 1018.5 |
| 20260904105940 | 71 | 186 | 1.0 | 4.0 | 0.00 | 0.00 | 0.00 | 67 | 1018.4 |
| 20260904104937 | 71 | 193 | 2.0 | 7.0 | 0.00 | 0.00 | 0.00 | 67 | 1018.4 |
| 20260904104438 | 71 | 184 | 1.0 | 7.0 | 0.00 | 0.00 | 0.00 | 67 | 1018.3 |
| 20260904103938 | 71 | 110 | 1.0 | 5.0 | 0.00 | 0.00 | 0.00 | 68 | 1018.2 |
| 20260904103437 | 71 | 156 | 2.0 | 5.0 | 0.00 | 0.00 | 0.00 | 68 | 1018.3 |
| 20260904102938 | 70 | 174 | 1.0 | 5.0 | 0.00 | 0.00 | 0.00 | 69 | 1018.3 |
| 20260904102438 | 70 | 189 | 1.0 | 3.0 | 0.00 | 0.00 | 0.00 | 69 | 1018.2 |
| 20260904101938 | 70 | 149 | 0.0 | 0.0 | 0.00 | 0.00 | 0.00 | 69 | 1018.2 |
| 20260904101436 | 70 | 161 | 0.0 | 0.0 | 0.00 | 0.00 | 0.00 | 69 | 1018.2 |
| 20260904100935 | 70 | 161 | 0.0 | 0.0 | 0.00 | 0.00 | 0.00 | 69 | 1018.0 |
| 20260904095933 | 71 | 165 | 0.0 | 0.0 | 0.00 | 0.00 | 0.00 | 68 | 1018.0 |
| 20260904095432 | 71 | 165 | 0.0 | 0.0 | 0.00 | 0.00 | 0.00 | 68 | 1018.0 |
| 20260904094930 | 71 | 146 | 0.0 | 0.0 | 0.00 | 0.00 | 0.00 | 68 | 1017.9 |
| 20260904094429 | 71 | 146 | 0.0 | 0.0 | 0.00 | 0.00 | 0.00 | 68 | 1017.9 |
| 20260904093929 | 71 | 173 | 0.0 | 0.0 | 0.00 | 0.00 | 0.00 | 68 | 1017.7 |
| 20260904090422 | 71 | 163 | 0.0 | 0.0 | 0.00 | 0.00 | 0.00 | 66 | 1017.9 |
| 20260904085922 | 71 | 163 | 0.0 | 0.0 | 0.00 | 0.00 | 0.00 | 66 | 1017.9 |
| 20260904085422 | 71 | 163 | 0.0 | 0.0 | 0.00 | 0.00 | 0.00 | 66 | 1017.9 |
| 20260904084922 | 71 | 163 | 0.0 | 0.0 | 0.00 | 0.00 | 0.00 | 66 | 1017.9 |
| 20260904084419 | 71 | 163 | 0.0 | 0.0 | 0.00 | 0.00 | 0.00 | 66 | 1017.9 |
| 20260904083918 | 72 | 163 | 0.0 | 0.0 | 0.00 | 0.00 | 0.00 | 65 | 1017.9 |
| 20260904083418 | 72 | 163 | 0.0 | 0.0 | 0.00 | 0.00 | 0.00 | 65 | 1017.7 |
| 20260904081914 | 72 | 163 | 0.0 | 0.0 | 0.00 | 0.00 | 0.00 | 64 | 1017.9 |
| 20260904081415 | 72 | 163 | 0.0 | 0.0 | 0.00 | 0.00 | 0.00 | 64 | 1017.9 |
| 20260904080910 | 72 | 163 | 0.0 | 0.0 | 0.00 | 0.00 | 0.00 | 64 | 1018.0 |
| 20260904075408 | 73 | 163 | 0.0 | 0.0 | 0.00 | 0.00 | 0.00 | 62 | 1018.0 |
| 20260904074406 | 74 | 163 | 0.0 | 0.0 | 0.00 | 0.00 | 0.00 | 61 | 1018.0 |
| 20260904073404 | 74 | 163 | 0.0 | 0.0 | 0.00 | 0.00 | 0.00 | 61 | 1017.9 |
| 20260904072902 | 74 | 163 | 0.0 | 0.0 | 0.00 | 0.00 | 0.00 | 61 | 1017.9 |
| 20260904072403 | 74 | 163 | 0.0 | 0.0 | 0.00 | 0.00 | 0.00 | 60 | 1017.9 |
| 20260904071358 | 74 | 163 | 0.0 | 0.0 | 0.00 | 0.00 | 0.00 | 59 | 1017.9 |
| 20260904070858 | 74 | 163 | 0.0 | 0.0 | 0.00 | 0.00 | 0.00 | 59 | 1017.7 |
| 20260904070356 | 74 | 144 | 0.0 | 0.0 | 0.00 | 0.00 | 0.00 | 58 | 1017.7 |
| 20260904065853 | 75 | 144 | 0.0 | 0.0 | 0.00 | 0.00 | 0.00 | 57 | 1017.7 |
| 20260904065352 | 75 | 144 | 0.0 | 0.0 | 0.00 | 0.00 | 0.00 | 57 | 1017.7 |
| 20260904064853 | 75 | 144 | 0.0 | 0.0 | 0.00 | 0.00 | 0.00 | 56 | 1017.6 |
| 20260904063850 | 76 | 161 | 1.0 | 3.0 | 0.00 | 0.00 | 0.00 | 55 | 1017.6 |
| 20260904063350 | 76 | 161 | 2.0 | 4.0 | 0.00 | 0.00 | 0.00 | 55 | 1017.7 |
| 20260904062851 | 76 | 153 | 2.0 | 5.0 | 0.00 | 0.00 | 0.00 | 55 | 1017.6 |
| 20260904062350 | 76 | 152 | 3.0 | 6.0 | 0.00 | 0.00 | 0.00 | 54 | 1017.6 |
| 20260904061851 | 76 | 123 | 2.0 | 6.0 | 0.00 | 0.00 | 0.00 | 54 | 1017.6 |
| 20260904060850 | 75 | 195 | 1.0 | 3.0 | 0.00 | 0.00 | 0.00 | 54 | 1017.7 |
| 20260904060351 | 75 | 192 | 1.0 | 3.0 | 0.00 | 0.00 | 0.00 | 54 | 1017.7 |
| 20260904055851 | 75 | 186 | 0.0 | 1.0 | 0.00 | 0.00 | 0.00 | 53 | 1017.6 |
| 20260904055350 | 76 | 186 | 0.0 | 2.0 | 0.00 | 0.00 | 0.00 | 53 | 1017.6 |
| 20260904054851 | 76 | 186 | 1.0 | 2.0 | 0.00 | 0.00 | 0.00 | 52 | 1017.5 |
| 20260904054351 | 76 | 186 | 1.0 | 2.0 | 0.00 | 0.00 | 0.00 | 52 | 1017.6 |
| 20260904053850 | 76 | 185 | 0.0 | 3.0 | 0.00 | 0.00 | 0.00 | 52 | 1017.6 |
| 20260904053351 | 76 | 185 | 1.0 | 3.0 | 0.00 | 0.00 | 0.00 | 51 | 1017.6 |
| 20260904052851 | 76 | 146 | 1.0 | 3.0 | 0.00 | 0.00 | 0.00 | 51 | 1017.7 |
| 20260904052350 | 76 | 167 | 1.0 | 3.0 | 0.00 | 0.00 | 0.00 | 51 | 1017.6 |
| 20260904051850 | 76 | 201 | 1.0 | 2.0 | 0.00 | 0.00 | 0.00 | 52 | 1017.7 |
| 20260904050850 | 76 | 201 | 0.0 | 0.0 | 0.00 | 0.00 | 0.00 | 52 | 1017.6 |
| 20260904050350 | 76 | 201 | 0.0 | 2.0 | 0.00 | 0.00 | 0.00 | 51 | 1017.6 |
| 20260904045851 | 76 | 201 | 0.0 | 2.0 | 0.00 | 0.00 | 0.00 | 51 | 1017.6 |
| 20260904045350 | 76 | 201 | 0.0 | 0.0 | 0.00 | 0.00 | 0.00 | 51 | 1017.6 |
| 20260904044850 | 76 | 201 | 0.0 | 0.0 | 0.00 | 0.00 | 0.00 | 50 | 1017.6 |
| 20260904044350 | 77 | 201 | 0.0 | 0.0 | 0.00 | 0.00 | 0.00 | 50 | 1017.6 |
| 20260904043852 | 77 | 201 | 0.0 | 1.0 | 0.00 | 0.00 | 0.00 | 49 | 1017.6 |
| 20260904043350 | 77 | 201 | 0.0 | 4.0 | 0.00 | 0.00 | 0.00 | 49 | 1017.6 |
| 20260904042350 | 77 | 197 | 1.0 | 3.0 | 0.00 | 0.00 | 0.00 | 49 | 1017.5 |
| 20260904041850 | 77 | 197 | 2.0 | 3.0 | 0.00 | 0.00 | 0.00 | 48 | 1017.5 |
| 20260904040850 | 77 | 187 | 1.0 | 3.0 | 0.00 | 0.00 | 0.00 | 48 | 1017.5 |
| 20260904040350 | 78 | 187 | 2.0 | 4.0 | 0.00 | 0.00 | 0.00 | 48 | 1017.4 |
| 20260904035350 | 77 | 197 | 1.0 | 3.0 | 0.00 | 0.00 | 0.00 | 49 | 1017.4 |
| 20260904034850 | 77 | 197 | 1.0 | 2.0 | 0.00 | 0.00 | 0.00 | 49 | 1017.4 |
| 20260904033852 | 77 | 197 | 0.0 | 3.0 | 0.00 | 0.00 | 0.00 | 48 | 1017.3 |
| 20260904033350 | 77 | 200 | 1.0 | 4.0 | 0.00 | 0.00 | 0.00 | 48 | 1017.3 |
| 20260904032850 | 77 | 200 | 2.0 | 4.0 | 0.00 | 0.00 | 0.00 | 48 | 1017.3 |
| 20260904032350 | 77 | 200 | 2.0 | 4.0 | 0.00 | 0.00 | 0.00 | 49 | 1017.3 |
| 20260904031851 | 77 | 200 | 1.0 | 2.0 | 0.00 | 0.00 | 0.00 | 48 | 1017.3 |
| 20260904031351 | 77 | 200 | 1.0 | 3.0 | 0.00 | 0.00 | 0.00 | 48 | 1017.2 |
| 20260904030851 | 77 | 200 | 1.0 | 3.0 | 0.00 | 0.00 | 0.00 | 48 | 1017.1 |
| 20260904030350 | 77 | 200 | 1.0 | 3.0 | 0.00 | 0.00 | 0.00 | 47 | 1017.1 |
| 20260904022848 | 79 | 200 | 2.0 | 3.0 | 0.00 | 0.00 | 0.00 | 44 | 1016.9 |
| 20260904022348 | 80 | 169 | 2.0 | 7.0 | 0.00 | 0.00 | 0.00 | 43 | 1016.7 |
| 20260904021848 | 80 | 180 | 2.0 | 7.0 | 0.00 | 0.00 | 0.00 | 43 | 1016.6 |
| 20260904020840 | 80 | 172 | 3.0 | 7.0 | 0.00 | 0.00 | 0.00 | 42 | 1016.6 |
| 20260904015340 | 80 | 192 | 3.0 | 7.0 | 0.00 | 0.00 | 0.00 | 42 | 1016.6 |
| 20260904014838 | 80 | 159 | 2.0 | 7.0 | 0.00 | 0.00 | 0.00 | 42 | 1016.5 |
| 20260904014338 | 80 | 139 | 2.0 | 5.0 | 0.00 | 0.00 | 0.00 | 42 | 1016.5 |
| 20260904013832 | 80 | 159 | 2.0 | 4.0 | 0.00 | 0.00 | 0.00 | 42 | 1016.5 |
| 20260904013330 | 80 | 155 | 1.0 | 4.0 | 0.00 | 0.00 | 0.00 | 42 | 1016.6 |
| 20260904012828 | 80 | 171 | 1.0 | 4.0 | 0.00 | 0.00 | 0.00 | 41 | 1016.5 |
| 20260904002312 | 84 | 180 | 2.0 | 6.0 | 0.00 | 0.00 | 0.00 | 37 | 1016.6 |
| 20260904001812 | 84 | 171 | 3.0 | 9.0 | 0.00 | 0.00 | 0.00 | 37 | 1016.6 |
| 20260904001310 | 84 | 191 | 3.0 | 9.0 | 0.00 | 0.00 | 0.00 | 38 | 1016.6 |
| 20260904000810 | 83 | 181 | 2.0 | 7.0 | 0.00 | 0.00 | 0.00 | 38 | 1016.6 |
| 20260904000304 | 83 | 128 | 2.0 | 6.0 | 0.00 | 0.00 | 0.00 | 38 | 1016.6 |
| 20260903235300 | 84 | 148 | 4.0 | 11.0 | 0.00 | 0.00 | 0.00 | 37 | 1016.6 |
| 20260903234758 | 85 | 150 | 4.0 | 11.0 | 0.00 | 0.00 | 0.00 | 37 | 1016.6 |
| 20260903234259 | 85 | 145 | 3.0 | 8.0 | 0.00 | 0.00 | 0.00 | 36 | 1016.6 |
| 20260903233759 | 86 | 107 | 3.0 | 7.0 | 0.00 | 0.00 | 0.00 | 36 | 1016.5 |
| 20260903233258 | 86 | 153 | 3.0 | 10.0 | 0.00 | 0.00 | 0.00 | 37 | 1016.6 |
| 20260903232759 | 86 | 165 | 3.0 | 10.0 | 0.00 | 0.00 | 0.00 | 37 | 1016.6 |
| 20260903232258 | 86 | 156 | 4.0 | 11.0 | 0.00 | 0.00 | 0.00 | 36 | 1016.6 |
| 20260903231757 | 86 | 144 | 5.0 | 11.0 | 0.00 | 0.00 | 0.00 | 36 | 1016.7 |
| 20260903231257 | 86 | 161 | 4.0 | 10.0 | 0.00 | 0.00 | 0.00 | 35 | 1016.7 |
| 20260903230257 | 86 | 151 | 4.0 | 9.0 | 0.00 | 0.00 | 0.00 | 36 | 1016.7 |
| 20260903225256 | 86 | 165 | 5.0 | 11.0 | 0.00 | 0.00 | 0.00 | 36 | 1016.9 |
| 20260903224755 | 87 | 140 | 4.0 | 8.0 | 0.00 | 0.00 | 0.00 | 35 | 1016.9 |
| 20260903224254 | 87 | 160 | 3.0 | 8.0 | 0.00 | 0.00 | 0.00 | 36 | 1016.9 |
| 20260903223255 | 87 | 146 | 3.0 | 9.0 | 0.00 | 0.00 | 0.00 | 35 | 1016.9 |
| 20260903222752 | 87 | 157 | 3.0 | 9.0 | 0.00 | 0.00 | 0.00 | 36 | 1017.2 |
| 20260903222250 | 87 | 139 | 3.0 | 11.0 | 0.00 | 0.00 | 0.00 | 37 | 1017.3 |
| 20260903221748 | 87 | 176 | 4.0 | 11.0 | 0.00 | 0.00 | 0.00 | 38 | 1017.3 |
| 20260903221248 | 86 | 162 | 4.0 | 9.0 | 0.00 | 0.00 | 0.00 | 37 | 1017.4 |
| 20260903220748 | 86 | 121 | 4.0 | 9.0 | 0.00 | 0.00 | 0.00 | 37 | 1017.3 |
| 20260903215248 | 85 | 138 | 4.0 | 9.0 | 0.00 | 0.00 | 0.00 | 38 | 1017.6 |
| 20260903214748 | 86 | 165 | 4.0 | 9.0 | 0.00 | 0.00 | 0.00 | 36 | 1017.7 |
| 20260903214248 | 86 | 163 | 4.0 | 12.0 | 0.00 | 0.00 | 0.00 | 38 | 1017.7 |